| time (UTC) | temp F | wind direction | speed knots | gust knots | rain 1hr in | rain 24hr in | rain mn in | humidity % | barometer mb |
| 20260906120530 | 72 | 133 | 7.8 | 8.7 | 0.00 | 0.09 | 0.00 | 97 | 1010.9 |
| 20260906115526 | 72 | 131 | 7.8 | 8.7 | 0.00 | 0.09 | 0.00 | 97 | 1010.9 |
| 20260906114521 | 72 | 133 | 7.8 | 8.7 | 0.00 | 0.09 | 0.00 | 97 | 1010.8 |
| 20260906113536 | 71 | 132 | 7.8 | 8.7 | 0.00 | 0.09 | 0.00 | 97 | 1010.8 |
| 20260906112531 | 71 | 130 | 7.8 | 8.7 | 0.00 | 0.09 | 0.00 | 97 | 1010.7 |
| 20260906111527 | 71 | 129 | 7.8 | 8.7 | 0.00 | 0.09 | 0.00 | 97 | 1010.5 |
| 20260906110522 | 71 | 130 | 7.8 | 9.6 | 0.00 | 0.09 | 0.00 | 97 | 1010.4 |
| 20260906105516 | 71 | 133 | 7.8 | 8.7 | 0.00 | 0.09 | 0.00 | 97 | 1010.3 |
| 20260906104532 | 71 | 128 | 7.0 | 8.7 | 0.00 | 0.09 | 0.00 | 97 | 1010.3 |
| 20260906103527 | 71 | 131 | 7.8 | 8.7 | 0.00 | 0.09 | 0.00 | 97 | 1010.3 |
| 20260906102522 | 71 | 130 | 7.8 | 8.7 | 0.00 | 0.09 | 0.00 | 97 | 1010.2 |
| 20260906101518 | 71 | 129 | 7.0 | 8.7 | 0.00 | 0.09 | 0.00 | 97 | 1010.1 |
| 20260906100533 | 72 | 132 | 7.8 | 9.6 | 0.00 | 0.09 | 0.00 | 97 | 1009.7 |
| 20260906095528 | 71 | 135 | 7.8 | 9.6 | 0.00 | 0.09 | 0.00 | 97 | 1009.7 |
| 20260906094523 | 71 | 134 | 7.8 | 9.6 | 0.00 | 0.09 | 0.00 | 97 | 1009.5 |
| 20260906093519 | 71 | 130 | 7.0 | 8.7 | 0.00 | 0.09 | 0.00 | 97 | 1009.6 |
| 20260906092534 | 72 | 129 | 7.8 | 9.6 | 0.00 | 0.09 | 0.00 | 97 | 1009.5 |
| 20260906091529 | 72 | 136 | 7.8 | 8.7 | 0.00 | 0.09 | 0.00 | 97 | 1009.6 |
| 20260906090524 | 72 | 133 | 7.8 | 9.6 | 0.00 | 0.09 | 0.00 | 97 | 1009.6 |
| 20260906085519 | 72 | 125 | 6.1 | 9.6 | 0.00 | 0.09 | 0.00 | 97 | 1009.6 |
| 20260906084534 | 72 | 132 | 7.0 | 9.6 | 0.00 | 0.09 | 0.00 | 97 | 1009.8 |
| 20260906083529 | 72 | 117 | 6.1 | 7.8 | 0.00 | 0.09 | 0.00 | 97 | 1009.6 |
| 20260906082524 | 72 | 132 | 7.0 | 8.7 | 0.00 | 0.09 | 0.00 | 97 | 1009.6 |
| 20260906081519 | 72 | 135 | 7.8 | 9.6 | 0.00 | 0.09 | 0.00 | 97 | 1009.5 |
| 20260906080535 | 72 | 134 | 7.8 | 9.6 | 0.00 | 0.09 | 0.00 | 97 | 1009.6 |
| 20260906075529 | 72 | 123 | 6.1 | 9.6 | 0.00 | 0.09 | 0.00 | 97 | 1009.7 |
| 20260906074525 | 72 | 133 | 7.8 | 10.4 | 0.00 | 0.09 | 0.00 | 97 | 1009.8 |
| 20260906073520 | 72 | 129 | 7.8 | 9.6 | 0.00 | 0.09 | 0.00 | 97 | 1009.8 |
| 20260906072535 | 73 | 137 | 7.8 | 10.4 | 0.00 | 0.09 | 0.00 | 97 | 1009.7 |
| 20260906071530 | 73 | 136 | 7.0 | 8.7 | 0.00 | 0.09 | 0.00 | 97 | 1009.7 |
| 20260906070525 | 73 | 133 | 7.0 | 8.7 | 0.00 | 0.09 | 0.00 | 97 | 1009.8 |
| 20260906065520 | 73 | 126 | 7.0 | 8.7 | 0.00 | 0.09 | 0.00 | 97 | 1009.7 |
| 20260906064535 | 73 | 135 | 7.0 | 8.7 | 0.00 | 0.09 | 0.00 | 97 | 1010.0 |
| 20260906063530 | 73 | 139 | 7.0 | 8.7 | 0.00 | 0.09 | 0.00 | 97 | 1009.8 |
| 20260906062525 | 73 | 137 | 7.0 | 7.8 | 0.00 | 0.09 | 0.00 | 97 | 1009.8 |
| 20260906061521 | 73 | 134 | 7.0 | 7.8 | 0.00 | 0.09 | 0.00 | 97 | 1009.8 |
| 20260906060536 | 73 | 136 | 7.0 | 7.8 | 0.00 | 0.09 | 0.00 | 97 | 1010.0 |
| 20260906055531 | 73 | 136 | 7.0 | 7.8 | 0.00 | 0.09 | 0.00 | 97 | 1010.0 |
| 20260906054526 | 73 | 136 | 7.0 | 7.8 | 0.00 | 0.09 | 0.00 | 97 | 1010.1 |
| 20260906053521 | 74 | 132 | 6.1 | 7.8 | 0.00 | 0.09 | 0.00 | 97 | 1009.9 |
| 20260906052516 | 74 | 136 | 7.0 | 7.8 | 0.00 | 0.09 | 0.00 | 97 | 1009.9 |
| 20260906051532 | 74 | 137 | 7.0 | 7.8 | 0.00 | 0.09 | 0.00 | 97 | 1009.8 |
| 20260906050527 | 74 | 138 | 7.0 | 7.8 | 0.00 | 0.09 | 0.00 | 97 | 1009.6 |
| 20260906045522 | 74 | 133 | 7.0 | 7.8 | 0.00 | 0.09 | 0.00 | 97 | 1009.7 |
| 20260906044517 | 74 | 137 | 7.0 | 7.8 | 0.00 | 0.09 | 0.00 | 97 | 1009.8 |
| 20260906043532 | 74 | 135 | 7.0 | 7.8 | 0.00 | 0.09 | 0.00 | 97 | 1010.1 |
| 20260906042528 | 74 | 136 | 7.0 | 7.8 | 0.00 | 0.09 | 0.00 | 97 | 1010.2 |
| 20260906041523 | 74 | 135 | 7.0 | 7.8 | 0.00 | 0.09 | 0.00 | 97 | 1010.6 |
| 20260906040518 | 74 | 140 | 7.0 | 7.8 | 0.00 | 0.09 | 0.00 | 97 | 1010.8 |
| 20260906035533 | 74 | 141 | 7.0 | 9.6 | 0.00 | 0.09 | 0.09 | 97 | 1010.9 |
| 20260906034528 | 74 | 140 | 7.0 | 7.8 | 0.00 | 0.09 | 0.09 | 97 | 1010.9 |
| 20260906033524 | 74 | 137 | 7.8 | 8.7 | 0.00 | 0.09 | 0.09 | 97 | 1011.1 |
| 20260906032519 | 74 | 138 | 7.0 | 7.8 | 0.00 | 0.09 | 0.09 | 97 | 1011.1 |
| 20260906031534 | 74 | 134 | 7.0 | 7.8 | 0.00 | 0.09 | 0.09 | 97 | 1011.4 |
| 20260906030529 | 73 | 141 | 7.8 | 8.7 | 0.00 | 0.09 | 0.09 | 97 | 1011.3 |
| 20260906025524 | 73 | 138 | 7.0 | 7.8 | 0.00 | 0.09 | 0.09 | 97 | 1011.1 |
| 20260906024519 | 73 | 139 | 7.0 | 7.8 | 0.00 | 0.09 | 0.09 | 97 | 1011.0 |
| 20260906023535 | 73 | 130 | 7.0 | 7.8 | 0.00 | 0.09 | 0.09 | 97 | 1011.0 |
| 20260906022530 | 73 | 137 | 7.0 | 7.8 | 0.00 | 0.09 | 0.09 | 97 | 1010.9 |
| 20260906021525 | 73 | 124 | 7.0 | 7.8 | 0.00 | 0.09 | 0.09 | 97 | 1011.2 |
| 20260906020520 | 73 | 137 | 7.8 | 8.7 | 0.00 | 0.09 | 0.09 | 96 | 1011.2 |
| 20260906015535 | 73 | 134 | 7.8 | 8.7 | 0.00 | 0.09 | 0.09 | 96 | 1011.2 |
| 20260906014530 | 73 | 132 | 6.1 | 7.8 | 0.00 | 0.09 | 0.09 | 96 | 1011.3 |
| 20260906013525 | 73 | 136 | 7.0 | 7.8 | 0.00 | 0.09 | 0.09 | 96 | 1011.4 |
| 20260906012520 | 73 | 133 | 7.0 | 9.6 | 0.00 | 0.09 | 0.09 | 96 | 1011.4 |
| 20260906011535 | 73 | 135 | 7.0 | 8.7 | 0.00 | 0.09 | 0.09 | 96 | 1011.2 |
| 20260906010530 | 73 | 124 | 7.0 | 8.7 | 0.00 | 0.09 | 0.09 | 96 | 1011.0 |
| 20260906005525 | 72 | 131 | 7.8 | 8.7 | 0.00 | 0.09 | 0.09 | 96 | 1010.5 |
| 20260906004520 | 72 | 127 | 7.0 | 7.8 | 0.00 | 0.09 | 0.09 | 96 | 1010.1 |
| 20260906003535 | 72 | 129 | 7.0 | 7.8 | 0.00 | 0.09 | 0.09 | 95 | 1010.5 |
| 20260906002530 | 72 | 132 | 7.0 | 7.8 | 0.00 | 0.09 | 0.09 | 95 | 1010.4 |
| 20260906001526 | 72 | 132 | 7.0 | 7.8 | 0.00 | 0.09 | 0.09 | 95 | 1010.2 |
| 20260906000521 | 73 | 137 | 7.0 | 7.8 | 0.02 | 0.09 | 0.09 | 95 | 1010.3 |
| 20260905235536 | 73 | 132 | 7.0 | 7.8 | 0.09 | 0.09 | 0.09 | 94 | 1010.1 |
| 20260905234531 | 73 | 139 | 7.0 | 8.7 | 0.09 | 0.09 | 0.09 | 94 | 1010.4 |
| 20260905233526 | 74 | 138 | 7.8 | 8.7 | 0.09 | 0.09 | 0.09 | 94 | 1011.0 |
| 20260905232521 | 74 | 132 | 7.0 | 7.8 | 0.09 | 0.09 | 0.09 | 93 | 1011.4 |
| 20260905231516 | 75 | 135 | 7.0 | 8.7 | 0.08 | 0.08 | 0.08 | 93 | 1011.4 |
| 20260905230532 | 76 | 131 | 5.2 | 7.0 | 0.07 | 0.07 | 0.07 | 87 | 1011.6 |
| 20260905225527 | 82 | 118 | 3.5 | 5.2 | 0.00 | 0.00 | 0.00 | 77 | 1011.5 |
| 20260905224522 | 84 | 136 | 5.2 | 7.0 | 0.00 | 0.00 | 0.00 | 86 | 1010.6 |
| 20260905223517 | 84 | 142 | 7.0 | 9.6 | 0.00 | 0.00 | 0.00 | 85 | 1009.5 |
| 20260905222532 | 84 | 146 | 7.8 | 11.3 | 0.00 | 0.00 | 0.00 | 84 | 1009.3 |
| 20260905221527 | 85 | 149 | 7.8 | 11.3 | 0.00 | 0.00 | 0.00 | 84 | 1009.7 |
| 20260905220522 | 85 | 145 | 7.0 | 9.6 | 0.00 | 0.00 | 0.00 | 83 | 1009.2 |
| 20260905215517 | 86 | 148 | 7.0 | 9.6 | 0.00 | 0.00 | 0.00 | 82 | 1008.9 |
| 20260905214532 | 86 | 150 | 7.0 | 9.6 | 0.00 | 0.00 | 0.00 | 81 | 1009.0 |
| 20260905213527 | 87 | 155 | 7.8 | 13.0 | 0.00 | 0.00 | 0.00 | 79 | 1009.0 |
| 20260905212522 | 87 | 152 | 7.8 | 11.3 | 0.00 | 0.00 | 0.00 | 79 | 1008.9 |
| 20260905211517 | 88 | 152 | 7.0 | 11.3 | 0.00 | 0.00 | 0.00 | 78 | 1009.1 |
| 20260905210532 | 87 | 153 | 6.1 | 9.6 | 0.00 | 0.00 | 0.00 | 79 | 1009.0 |
| 20260905205527 | 88 | 157 | 7.0 | 11.3 | 0.00 | 0.00 | 0.00 | 78 | 1008.9 |
| 20260905204522 | 88 | 151 | 7.8 | 12.2 | 0.00 | 0.00 | 0.00 | 78 | 1008.9 |
| 20260905203517 | 88 | 157 | 7.0 | 10.4 | 0.00 | 0.00 | 0.00 | 78 | 1008.8 |
| 20260905202532 | 89 | 184 | 7.0 | 10.4 | 0.00 | 0.00 | 0.00 | 76 | 1008.7 |
| 20260905201528 | 89 | 187 | 6.1 | 11.3 | 0.00 | 0.00 | 0.00 | 76 | 1009.0 |
| 20260905200523 | 89 | 196 | 6.1 | 7.8 | 0.00 | 0.00 | 0.00 | 75 | 1009.0 |
| 20260905195518 | 89 | 191 | 5.2 | 7.8 | 0.00 | 0.00 | 0.00 | 75 | 1009.0 |
| 20260905194533 | 89 | 191 | 5.2 | 7.8 | 0.00 | 0.00 | 0.00 | 75 | 1009.0 |
| 20260905193529 | 90 | 188 | 6.1 | 13.0 | 0.00 | 0.00 | 0.00 | 73 | 1009.2 |
| 20260905192524 | 89 | 188 | 5.2 | 8.7 | 0.00 | 0.00 | 0.00 | 73 | 1009.2 |
| 20260905191519 | 89 | 184 | 7.0 | 10.4 | 0.00 | 0.00 | 0.00 | 74 | 1009.5 |
| 20260905190534 | 90 | 186 | 7.0 | 11.3 | 0.00 | 0.00 | 0.00 | 72 | 1009.9 |
| 20260905185529 | 90 | 194 | 6.1 | 8.7 | 0.00 | 0.00 | 0.00 | 73 | 1010.0 |
| 20260905184525 | 90 | 192 | 5.2 | 9.6 | 0.00 | 0.00 | 0.00 | 71 | 1010.2 |
| 20260905183520 | 90 | 193 | 5.2 | 7.8 | 0.00 | 0.00 | 0.00 | 71 | 1010.4 |
| 20260905182535 | 92 | 187 | 6.1 | 11.3 | 0.00 | 0.00 | 0.00 | 68 | 1010.4 |
| 20260905181530 | 91 | 187 | 7.0 | 8.7 | 0.00 | 0.00 | 0.00 | 69 | 1010.5 |
| 20260905180525 | 91 | 194 | 5.2 | 7.8 | 0.00 | 0.00 | 0.00 | 69 | 1010.6 |
| 20260905175521 | 90 | 193 | 6.1 | 10.4 | 0.00 | 0.00 | 0.00 | 71 | 1010.8 |
| 20260905174516 | 90 | 180 | 6.1 | 9.6 | 0.00 | 0.00 | 0.00 | 71 | 1010.9 |
| 20260905173531 | 90 | 186 | 7.0 | 9.6 | 0.00 | 0.00 | 0.00 | 70 | 1011.0 |
| 20260905172526 | 90 | 154 | 7.8 | 14.8 | 0.00 | 0.00 | 0.00 | 71 | 1011.1 |
| 20260905171522 | 91 | 155 | 6.1 | 11.3 | 0.00 | 0.00 | 0.00 | 70 | 1011.2 |
| 20260905170517 | 92 | 155 | 6.1 | 8.7 | 0.00 | 0.00 | 0.00 | 69 | 1011.3 |
| 20260905165532 | 91 | 156 | 7.8 | 13.0 | 0.00 | 0.00 | 0.00 | 68 | 1011.4 |
| 20260905164527 | 92 | 156 | 6.1 | 9.6 | 0.00 | 0.00 | 0.00 | 70 | 1011.4 |
| 20260905163522 | 92 | 190 | 5.2 | 7.0 | 0.00 | 0.00 | 0.00 | 69 | 1011.6 |
| 20260905162517 | 91 | 184 | 7.0 | 9.6 | 0.00 | 0.00 | 0.00 | 70 | 1011.7 |
| 20260905161532 | 91 | 184 | 5.2 | 8.7 | 0.00 | 0.00 | 0.00 | 70 | 1012.0 |
| 20260905160527 | 92 | 189 | 4.3 | 8.7 | 0.00 | 0.00 | 0.00 | 68 | 1012.1 |
| 20260905155523 | 90 | 187 | 5.2 | 8.7 | 0.00 | 0.00 | 0.00 | 71 | 1012.1 |
| 20260905154518 | 91 | 188 | 4.3 | 7.0 | 0.00 | 0.00 | 0.00 | 68 | 1012.4 |
| 20260905153533 | 92 | 187 | 4.3 | 5.2 | 0.00 | 0.00 | 0.00 | 67 | 1012.4 |
| 20260905152528 | 90 | 186 | 3.5 | 6.1 | 0.00 | 0.00 | 0.00 | 70 | 1012.4 |
| 20260905151522 | 90 | 186 | 5.2 | 7.8 | 0.00 | 0.00 | 0.00 | 70 | 1012.6 |
| 20260905150517 | 90 | 197 | 5.2 | 6.1 | 0.00 | 0.00 | 0.00 | 70 | 1012.6 |
| 20260905145533 | 89 | 184 | 3.5 | 5.2 | 0.00 | 0.00 | 0.00 | 72 | 1012.7 |
| 20260905144527 | 88 | 158 | 5.2 | 7.8 | 0.00 | 0.00 | 0.00 | 74 | 1012.7 |
| 20260905143523 | 87 | 140 | 6.1 | 7.0 | 0.00 | 0.00 | 0.00 | 75 | 1012.8 |
| 20260905142518 | 86 | 147 | 5.2 | 7.0 | 0.00 | 0.00 | 0.00 | 77 | 1012.7 |
| 20260905141533 | 85 | 113 | 2.6 | 3.5 | 0.00 | 0.00 | 0.00 | 79 | 1012.8 |
| 20260905140528 | 85 | 95 | 3.5 | 4.3 | 0.00 | 0.00 | 0.00 | 79 | 1013.0 |
| 20260905135524 | 84 | 109 | 3.5 | 7.0 | 0.00 | 0.00 | 0.00 | 81 | 1012.9 |
| 20260905134518 | 84 | 113 | 4.3 | 7.8 | 0.00 | 0.00 | 0.00 | 82 | 1012.9 |
| 20260905133534 | 83 | 91 | 3.5 | 6.1 | 0.00 | 0.00 | 0.00 | 83 | 1012.9 |
| 20260905132529 | 83 | 75 | 3.5 | 6.1 | 0.00 | 0.00 | 0.00 | 83 | 1013.0 |
| 20260905131524 | 82 | 107 | 3.5 | 6.1 | 0.00 | 0.00 | 0.00 | 84 | 1013.0 |
| 20260905130519 | 82 | 93 | 3.5 | 6.1 | 0.00 | 0.00 | 0.00 | 87 | 1012.9 |
| 20260905125534 | 80 | 92 | 4.3 | 5.2 | 0.00 | 0.00 | 0.00 | 89 | 1013.1 |
| 20260905124529 | 80 | 88 | 4.3 | 5.2 | 0.00 | 0.00 | 0.00 | 91 | 1013.1 |
| 20260905123524 | 79 | 86 | 3.5 | 4.3 | 0.00 | 0.00 | 0.00 | 93 | 1013.0 |
| 20260905122519 | 78 | 100 | 3.5 | 5.2 | 0.00 | 0.00 | 0.00 | 94 | 1012.9 |
| 20260905121534 | 78 | 97 | 3.5 | 5.2 | 0.00 | 0.00 | 0.00 | 96 | 1013.0 |